Location: Unspecified
(0.0000°N, 0.0000°E)
Time: 07:28:21
(UTC+02:00)

Ariane H10+ - Visible Passes

Search period start: 24 June 2018 00:00
Search period end: 04 July 2018 00:00
Orbit: 299 x 31225 km, 7.2° (Epoch: 23 June)

Date Brightness Start Highest point End Pass type
(mag) Time Alt. Az. Time Alt. Az. Time Alt. Az.
24 Jun 5.9 04:55:52 70° S 04:56:27 70° SSE 13:01:53 10° E visible
24 Jun 5.5 22:41:00 10° W 22:45:16 25° WSW 22:45:16 25° WSW visible
27 Jun 6.2 05:47:31 46° WSW 05:54:24 79° SSE 14:04:01 10° E visible
29 Jun 7.1 03:19:44 29° ESE 03:19:44 29° ESE 03:38:46 10° E visible
29 Jun 4.5 20:38:40 10° W 21:05:50 80° S 21:08:51 22° ESE visible
30 Jun 6.8 06:39:01 23° WSW 06:55:48 86° S 15:02:22 10° E visible
02 Jul 6.4 04:11:09 57° ESE 04:11:09 57° ESE 12:08:04 10° E visible
02 Jul 3.7 21:49:42 10° W 22:00:04 56° SSW 22:00:04 56° SSW visible
03 Jul 7.4 07:31:17 10° W 08:06:01 89° N 15:58:35 10° E visible
